Volver al catálogo

STARLINK-1471

ActivoComunicacionesVLEO
NORAD 45735·PAYLOAD·🇺🇸 United States

Lanzado Jun 13, 2020 desde Cape Canaveral Space Force Station

Loading…

Próximos Pases (próximas 24 horas)

TLE

ActualizadoSource: CelesTrak SupGP

Época: Sep 14, 2026, 21:15 UTC

1 45735C 20038F   26257.88590278  .00019102  00000+0  21923-3 0  2575
2 45735  53.0407 307.9096 0002564  29.8438 105.7708 15.61412170    17

Sigue STARLINK-1471 en tiempo real con AllMySat

Download on the App Store